Time,TemperatureF,DewpointF,PressureIn,WindDirection,WindDirectionDegrees,WindSpeedMPH,WindSpeedGustMPH,Humidity,HourlyPrecipIn,Conditions,Clouds,dailyrainin,SoftwareType,DateUTC
2013-02-15 00:00:00,46.0,43.2,30.03,NE,45,4.0,4.0,90,0.00,,,0.00,Wunderground v.1.15,2013-02-15 05:00:00,
2013-02-15 00:01:00,46.1,43.0,30.03,NE,45,5.0,6.0,89,0.00,,,0.00,Wunderground v.1.15,2013-02-15 05:01:00,
2013-02-15 00:02:00,46.1,43.0,30.03,NE,45,5.0,6.0,89,0.00,,,0.00,Wunderground v.1.15,2013-02-15 05:02:00,
2013-02-15 00:07:00,46.4,43.3,30.03,NE,45,4.0,6.0,89,0.00,,,0.00,Wunderground v.1.15,2013-02-15 05:07:00,
2013-02-15 00:13:00,46.5,43.1,30.02,NE,45,6.0,6.0,88,0.00,,,0.00,Wunderground v.1.15,2013-02-15 05:13:00,
2013-02-15 00:18:00,46.5,43.1,30.03,NE,45,6.0,6.0,88,0.00,,,0.00,Wunderground v.1.15,2013-02-15 05:18:00,
2013-02-15 00:24:00,46.5,43.1,30.03,NE,45,5.0,6.0,88,0.00,,,0.00,Wunderground v.1.15,2013-02-15 05:24:00,
2013-02-15 00:30:00,46.6,42.9,30.03,NE,45,5.0,5.0,87,0.00,,,0.00,Wunderground v.1.15,2013-02-15 05:30:00,
2013-02-15 00:36:00,46.7,43.0,30.02,NE,43,4.0,7.0,87,0.00,,,0.00,Wunderground v.1.15,2013-02-15 05:36:00,
2013-02-15 00:42:00,46.6,42.9,30.02,NE,41,7.0,7.0,87,0.00,,,0.00,Wunderground v.1.15,2013-02-15 05:42:00,
2013-02-15 00:47:00,46.6,42.9,30.04,NE,40,4.0,7.0,87,0.00,,,0.00,Wunderground v.1.15,2013-02-15 05:47:00,
2013-02-15 00:53:00,46.6,42.9,30.04,NE,40,4.0,6.0,87,0.00,,,0.00,Wunderground v.1.15,2013-02-15 05:53:00,
2013-02-15 00:58:00,46.6,42.9,30.04,NE,40,5.0,6.0,87,0.00,,,0.00,Wunderground v.1.15,2013-02-15 05:58:00,
2013-02-15 01:56:00,47.1,43.7,30.03,North,5,11.0,14.0,88,0.00,,,0.00,Wunderground v.1.15,2013-02-15 06:56:00,
2013-02-15 02:01:00,47.2,43.8,30.03,North,10,10.0,11.0,88,0.00,,,0.00,Wunderground v.1.15,2013-02-15 07:01:00,
2013-02-15 02:06:00,47.0,43.6,30.03,North,10,10.0,13.0,88,0.00,,,0.00,Wunderground v.1.15,2013-02-15 07:06:00,
2013-02-15 02:11:00,47.1,43.7,30.02,North,9,10.0,12.0,88,0.00,,,0.00,Wunderground v.1.15,2013-02-15 07:11:00,
2013-02-15 02:16:00,47.1,43.7,30.02,North,9,8.0,13.0,88,0.00,,,0.00,Wunderground v.1.15,2013-02-15 07:16:00,
2013-02-15 02:21:00,47.3,43.9,30.03,North,5,10.0,13.0,88,0.00,,,0.00,Wunderground v.1.15,2013-02-15 07:21:00,
2013-02-15 02:26:00,47.4,44.0,30.03,North,360,13.0,13.0,88,0.00,,,0.00,Wunderground v.1.15,2013-02-15 07:26:00,
2013-02-15 02:31:00,47.5,43.8,30.03,North,360,12.0,12.0,87,0.00,,,0.00,Wunderground v.1.15,2013-02-15 07:31:00,
2013-02-15 02:36:00,47.5,43.8,30.02,North,5,15.0,16.0,87,0.00,,,0.00,Wunderground v.1.15,2013-02-15 07:36:00,
2013-02-15 02:41:00,47.6,43.6,30.02,North,5,14.0,16.0,86,0.00,,,0.00,Wunderground v.1.15,2013-02-15 07:41:00,
2013-02-15 02:46:00,47.6,43.9,30.01,North,5,10.0,16.0,87,0.00,,,0.00,Wunderground v.1.15,2013-02-15 07:46:00,
2013-02-15 02:51:00,47.4,43.7,30.02,North,9,12.0,14.0,87,0.00,,,0.00,Wunderground v.1.15,2013-02-15 07:51:00,
2013-02-15 02:56:00,47.4,44.0,30.01,North,5,12.0,15.0,88,0.00,,,0.00,Wunderground v.1.15,2013-02-15 07:56:00,
2013-02-15 03:01:00,47.3,43.6,30.01,North,9,11.0,14.0,87,0.00,,,0.00,Wunderground v.1.15,2013-02-15 08:01:00,
2013-02-15 03:06:00,47.3,43.9,30.01,North,5,12.0,15.0,88,0.00,,,0.00,Wunderground v.1.15,2013-02-15 08:06:00,
2013-02-15 03:11:00,47.2,43.8,30.01,North,10,10.0,13.0,88,0.00,,,0.00,Wunderground v.1.15,2013-02-15 08:11:00,
2013-02-15 03:16:00,47.2,43.5,30.02,North,11,11.0,15.0,87,0.00,,,0.00,Wunderground v.1.15,2013-02-15 08:16:00,
2013-02-15 03:21:00,47.2,43.5,30.02,North,5,10.0,12.0,87,0.00,,,0.00,Wunderground v.1.15,2013-02-15 08:21:00,
2013-02-15 03:26:00,47.2,43.2,30.02,North,5,10.0,12.0,86,0.00,,,0.00,Wunderground v.1.15,2013-02-15 08:26:00,
2013-02-15 03:31:00,47.4,43.4,30.02,North,5,7.0,10.0,86,0.00,,,0.00,Wunderground v.1.15,2013-02-15 08:31:00,
2013-02-15 03:36:00,47.4,43.4,30.03,North,360,11.0,11.0,86,0.00,,,0.00,Wunderground v.1.15,2013-02-15 08:36:00,
2013-02-15 03:41:00,47.4,43.4,30.03,North,360,10.0,12.0,86,0.00,,,0.00,Wunderground v.1.15,2013-02-15 08:41:00,
2013-02-15 03:46:00,47.3,43.3,30.03,North,360,11.0,12.0,86,0.00,,,0.00,Wunderground v.1.15,2013-02-15 08:46:00,
2013-02-15 03:51:00,47.3,43.3,30.03,North,355,9.0,14.0,86,0.00,,,0.00,Wunderground v.1.15,2013-02-15 08:51:00,
2013-02-15 03:56:00,47.3,43.3,30.04,North,360,10.0,14.0,86,0.00,,,0.00,Wunderground v.1.15,2013-02-15 08:56:00,
2013-02-15 04:01:00,47.2,43.2,30.03,North,355,10.0,11.0,86,0.00,,,0.00,Wunderground v.1.15,2013-02-15 09:01:00,
2013-02-15 04:06:00,47.1,43.1,30.03,North,360,10.0,12.0,86,0.00,,,0.00,Wunderground v.1.15,2013-02-15 09:06:00,
2013-02-15 04:11:00,47.1,43.1,30.03,North,355,10.0,11.0,86,0.00,,,0.00,Wunderground v.1.15,2013-02-15 09:11:00,
2013-02-15 04:16:00,47.0,43.0,30.04,North,355,9.0,11.0,86,0.00,,,0.00,Wunderground v.1.15,2013-02-15 09:16:00,
2013-02-15 04:22:00,47.0,43.0,30.04,North,360,10.0,11.0,86,0.00,,,0.00,Wunderground v.1.15,2013-02-15 09:22:00,
2013-02-15 04:27:00,47.0,43.0,30.04,North,5,6.0,11.0,86,0.00,,,0.00,Wunderground v.1.15,2013-02-15 09:27:00,
2013-02-15 04:32:00,46.9,42.9,30.04,North,5,5.0,10.0,86,0.00,,,0.00,Wunderground v.1.15,2013-02-15 09:32:00,
2013-02-15 04:37:00,46.8,42.8,30.04,North,5,7.0,10.0,86,0.00,,,0.00,Wunderground v.1.15,2013-02-15 09:37:00,
2013-02-15 04:42:00,46.8,42.8,30.03,North,9,7.0,10.0,86,0.00,,,0.00,Wunderground v.1.15,2013-02-15 09:42:00,
2013-02-15 04:47:00,46.8,42.8,30.03,North,9,6.0,10.0,86,0.00,,,0.00,Wunderground v.1.15,2013-02-15 09:47:00,
2013-02-15 04:52:00,46.8,42.8,30.03,North,9,9.0,9.0,86,0.00,,,0.00,Wunderground v.1.15,2013-02-15 09:52:00,
2013-02-15 04:57:00,46.8,42.8,30.03,North,11,8.0,11.0,86,0.00,,,0.00,Wunderground v.1.15,2013-02-15 09:57:00,
2013-02-15 05:02:00,46.9,43.2,30.03,NNE,13,8.0,10.0,87,0.00,,,0.00,Wunderground v.1.15,2013-02-15 10:02:00,
2013-02-15 05:07:00,47.0,43.3,30.03,North,11,10.0,11.0,87,0.00,,,0.00,Wunderground v.1.15,2013-02-15 10:07:00,
2013-02-15 05:12:00,47.1,43.4,30.03,North,5,8.0,12.0,87,0.00,,,0.00,Wunderground v.1.15,2013-02-15 10:12:00,
2013-02-15 05:17:00,47.3,43.3,30.03,North,360,10.0,12.0,86,0.00,,,0.00,Wunderground v.1.15,2013-02-15 10:17:00,
2013-02-15 05:22:00,47.4,43.4,30.03,North,360,7.0,10.0,86,0.00,,,0.00,Wunderground v.1.15,2013-02-15 10:22:00,
2013-02-15 05:27:00,47.4,43.4,30.03,North,5,7.0,10.0,86,0.00,,,0.00,Wunderground v.1.15,2013-02-15 10:27:00,
2013-02-15 05:32:00,47.4,43.4,30.03,North,5,6.0,10.0,86,0.00,,,0.00,Wunderground v.1.15,2013-02-15 10:32:00,
2013-02-15 05:37:00,47.5,43.5,30.03,North,5,9.0,11.0,86,0.00,,,0.00,Wunderground v.1.15,2013-02-15 10:37:00,
2013-02-15 05:42:00,47.5,43.2,30.03,North,360,11.0,13.0,85,0.00,,,0.00,Wunderground v.1.15,2013-02-15 10:42:00,
2013-02-15 05:47:00,47.5,43.2,30.03,North,5,6.0,13.0,85,0.00,,,0.00,Wunderground v.1.15,2013-02-15 10:47:00,
2013-02-15 05:52:00,47.4,43.4,30.03,North,5,9.0,10.0,86,0.00,,,0.00,Wunderground v.1.15,2013-02-15 10:52:00,
2013-02-15 05:57:00,47.3,43.3,30.03,North,10,7.0,11.0,86,0.00,,,0.00,Wunderground v.1.15,2013-02-15 10:57:00,
2013-02-15 06:02:00,47.2,43.2,30.03,North,9,9.0,11.0,86,0.00,,,0.00,Wunderground v.1.15,2013-02-15 11:02:00,
2013-02-15 06:07:00,47.3,43.3,30.03,North,9,7.0,11.0,86,0.00,,,0.00,Wunderground v.1.15,2013-02-15 11:07:00,
2013-02-15 06:12:00,47.3,43.3,30.04,North,9,5.0,9.0,86,0.00,,,0.00,Wunderground v.1.15,2013-02-15 11:12:00,
2013-02-15 06:17:00,47.1,43.1,30.04,NNE,12,9.0,11.0,86,0.00,,,0.00,Wunderground v.1.15,2013-02-15 11:17:00,
2013-02-15 06:22:00,47.2,43.2,30.04,North,11,10.0,11.0,86,0.00,,,0.00,Wunderground v.1.15,2013-02-15 11:22:00,
2013-02-15 06:27:00,47.2,42.9,30.04,NNE,12,7.0,11.0,85,0.00,,,0.00,Wunderground v.1.15,2013-02-15 11:27:00,
2013-02-15 06:32:00,47.2,43.2,30.04,North,11,6.0,10.0,86,0.00,,,0.00,Wunderground v.1.15,2013-02-15 11:32:00,
2013-02-15 06:37:00,47.1,42.8,30.04,NNE,13,10.0,11.0,85,0.00,,,0.00,Wunderground v.1.15,2013-02-15 11:37:00,
2013-02-15 06:42:00,47.1,43.1,30.04,NNE,13,9.0,10.0,86,0.00,,,0.00,Wunderground v.1.15,2013-02-15 11:42:00,
2013-02-15 06:47:00,47.1,42.8,30.05,NNE,19,8.0,11.0,85,0.00,,,0.00,Wunderground v.1.15,2013-02-15 11:47:00,
2013-02-15 06:52:00,47.0,42.7,30.05,NNE,20,7.0,9.0,85,0.00,,,0.00,Wunderground v.1.15,2013-02-15 11:52:00,
2013-02-15 06:57:00,47.1,43.1,30.04,NNE,20,5.0,9.0,86,0.00,,,0.00,Wunderground v.1.15,2013-02-15 11:57:00,
2013-02-15 07:02:00,47.1,42.8,30.05,NNE,16,6.0,10.0,85,0.00,,,0.00,Wunderground v.1.15,2013-02-15 12:02:00,
2013-02-15 07:07:00,47.0,43.0,30.04,NNE,16,7.0,10.0,86,0.00,,,0.00,Wunderground v.1.15,2013-02-15 12:07:00,
2013-02-15 07:12:00,47.1,43.1,30.04,NNE,18,9.0,11.0,86,0.00,,,0.00,Wunderground v.1.15,2013-02-15 12:12:00,
2013-02-15 07:18:00,47.2,43.2,30.04,NNE,17,6.0,11.0,86,0.00,,,0.00,Wunderground v.1.15,2013-02-15 12:18:00,
2013-02-15 07:23:00,47.2,43.2,30.05,NNE,18,6.0,10.0,86,0.00,,,0.00,Wunderground v.1.15,2013-02-15 12:23:00,
2013-02-15 07:28:00,47.2,43.2,30.05,NNE,18,6.0,10.0,86,0.00,,,0.00,Wunderground v.1.15,2013-02-15 12:28:00,
2013-02-15 07:33:00,47.2,42.9,30.05,NNE,17,9.0,12.0,85,0.00,,,0.00,Wunderground v.1.15,2013-02-15 12:33:00,
2013-02-15 07:38:00,47.3,43.0,30.06,NNE,17,7.0,12.0,85,0.00,,,0.00,Wunderground v.1.15,2013-02-15 12:38:00,
2013-02-15 07:43:00,47.4,43.4,30.06,NNE,20,6.0,7.0,86,0.00,,,0.00,Wunderground v.1.15,2013-02-15 12:43:00,
2013-02-15 07:48:00,47.4,43.4,30.05,NNE,20,7.0,7.0,86,0.00,,,0.00,Wunderground v.1.15,2013-02-15 12:48:00,
2013-02-15 07:53:00,47.5,43.5,30.06,NNE,21,5.0,9.0,86,0.00,,,0.00,Wunderground v.1.15,2013-02-15 12:53:00,
2013-02-15 07:58:00,47.6,43.3,30.05,NNE,23,6.0,9.0,85,0.00,,,0.00,Wunderground v.1.15,2013-02-15 12:58:00,
2013-02-15 08:03:00,47.5,43.2,30.05,NNE,22,10.0,11.0,85,0.00,,,0.00,Wunderground v.1.15,2013-02-15 13:03:00,
2013-02-15 08:08:00,47.5,43.2,30.05,NNE,24,6.0,11.0,85,0.00,,,0.00,Wunderground v.1.15,2013-02-15 13:08:00,
2013-02-15 08:13:00,47.6,43.3,30.05,NNE,28,7.0,11.0,85,0.00,,,0.00,Wunderground v.1.15,2013-02-15 13:13:00,
2013-02-15 08:18:00,47.7,43.1,30.05,NNE,31,7.0,11.0,84,0.00,,,0.00,Wunderground v.1.15,2013-02-15 13:18:00,
2013-02-15 08:23:00,47.8,43.2,30.05,NNE,26,10.0,10.0,84,0.00,,,0.00,Wunderground v.1.15,2013-02-15 13:23:00,
2013-02-15 08:28:00,47.8,43.2,30.05,NNE,16,9.0,12.0,84,0.00,,,0.00,Wunderground v.1.15,2013-02-15 13:28:00,
2013-02-15 08:33:00,47.7,43.1,30.06,NNE,20,9.0,14.0,84,0.00,,,0.00,Wunderground v.1.15,2013-02-15 13:33:00,
2013-02-15 08:38:00,47.8,43.2,30.06,NNE,17,9.0,14.0,84,0.00,,,0.00,Wunderground v.1.15,2013-02-15 13:38:00,
2013-02-15 08:43:00,47.9,43.3,30.07,NNE,26,6.0,9.0,84,0.00,,,0.00,Wunderground v.1.15,2013-02-15 13:43:00,
2013-02-15 08:48:00,48.0,43.4,30.07,NNE,25,7.0,9.0,84,0.00,,,0.00,Wunderground v.1.15,2013-02-15 13:48:00,
2013-02-15 08:53:00,47.9,43.0,30.07,NNE,30,4.0,10.0,83,0.00,,,0.00,Wunderground v.1.15,2013-02-15 13:53:00,
2013-02-15 08:58:00,47.9,43.0,30.07,NNE,32,6.0,10.0,83,0.00,,,0.00,Wunderground v.1.15,2013-02-15 13:58:00,
2013-02-15 09:04:00,47.9,43.3,30.07,NE,36,6.0,9.0,84,0.00,,,0.00,Wunderground v.1.15,2013-02-15 14:04:00,
2013-02-15 09:09:00,47.9,43.0,30.08,NE,36,7.0,9.0,83,0.00,,,0.00,Wunderground v.1.15,2013-02-15 14:09:00,
2013-02-15 09:14:00,47.9,43.3,30.07,NNE,27,6.0,10.0,84,0.00,,,0.00,Wunderground v.1.15,2013-02-15 14:14:00,
2013-02-15 09:19:00,47.9,43.3,30.07,NNE,27,4.0,11.0,84,0.00,,,0.00,Wunderground v.1.15,2013-02-15 14:19:00,
2013-02-15 09:24:00,47.9,43.0,30.07,NE,35,5.0,11.0,83,0.00,,,0.00,Wunderground v.1.15,2013-02-15 14:24:00,
2013-02-15 09:29:00,48.0,43.4,30.07,NNE,27,6.0,11.0,84,0.00,,,0.00,Wunderground v.1.15,2013-02-15 14:29:00,
2013-02-15 09:34:00,48.0,43.4,30.07,NE,35,9.0,11.0,84,0.00,,,0.00,Wunderground v.1.15,2013-02-15 14:34:00,
2013-02-15 09:39:00,48.0,43.4,30.06,NNE,30,7.0,12.0,84,0.00,,,0.00,Wunderground v.1.15,2013-02-15 14:39:00,
2013-02-15 09:44:00,48.0,43.4,30.07,NE,40,11.0,11.0,84,0.00,,,0.00,Wunderground v.1.15,2013-02-15 14:44:00,
2013-02-15 09:49:00,48.0,43.4,30.06,NE,42,10.0,13.0,84,0.00,,,0.00,Wunderground v.1.15,2013-02-15 14:49:00,
2013-02-15 09:54:00,48.0,43.4,30.06,NE,51,4.0,11.0,84,0.00,,,0.00,Wunderground v.1.15,2013-02-15 14:54:00,
2013-02-15 09:59:00,48.0,43.4,30.06,NE,42,10.0,11.0,84,0.00,,,0.00,Wunderground v.1.15,2013-02-15 14:59:00,
2013-02-15 10:04:00,47.9,43.3,30.06,NE,47,10.0,10.0,84,0.00,,,0.00,Wunderground v.1.15,2013-02-15 15:04:00,
2013-02-15 10:09:00,47.9,43.3,30.06,NE,41,7.0,10.0,84,0.00,,,0.00,Wunderground v.1.15,2013-02-15 15:09:00,
2013-02-15 10:14:00,47.9,43.3,30.06,NNE,29,10.0,11.0,84,0.00,,,0.00,Wunderground v.1.15,2013-02-15 15:14:00,
2013-02-15 10:19:00,47.8,43.2,30.06,NE,36,9.0,11.0,84,0.00,,,0.00,Wunderground v.1.15,2013-02-15 15:19:00,
2013-02-15 10:24:00,47.9,43.6,30.06,NE,37,7.0,10.0,85,0.00,,,0.00,Wunderground v.1.15,2013-02-15 15:24:00,
2013-02-15 10:29:00,47.9,43.3,30.06,NNE,13,8.0,12.0,84,0.00,,,0.00,Wunderground v.1.15,2013-02-15 15:29:00,
2013-02-15 10:34:00,48.1,43.5,30.06,North,5,7.0,10.0,84,0.00,,,0.00,Wunderground v.1.15,2013-02-15 15:34:00,
2013-02-15 10:39:00,48.0,43.4,30.06,NNE,19,7.0,12.0,84,0.00,,,0.00,Wunderground v.1.15,2013-02-15 15:39:00,
2013-02-15 10:44:00,48.0,43.4,30.06,NNE,17,5.0,11.0,84,0.00,,,0.00,Wunderground v.1.15,2013-02-15 15:44:00,
2013-02-15 10:49:00,48.1,43.2,30.06,NNE,12,8.0,11.0,83,0.00,,,0.00,Wunderground v.1.15,2013-02-15 15:49:00,
2013-02-15 10:54:00,48.2,43.3,30.06,NNE,25,9.0,11.0,83,0.00,,,0.00,Wunderground v.1.15,2013-02-15 15:54:00,
2013-02-15 10:59:00,48.2,43.0,30.06,NNE,24,6.0,11.0,82,0.00,,,0.00,Wunderground v.1.15,2013-02-15 15:59:00,
2013-02-15 11:04:00,48.3,43.1,30.06,NNE,32,5.0,10.0,82,0.00,,,0.00,Wunderground v.1.15,2013-02-15 16:04:00,
2013-02-15 11:10:00,48.5,43.6,30.06,NNE,32,6.0,11.0,83,0.00,,,0.00,Wunderground v.1.15,2013-02-15 16:10:00,
2013-02-15 11:15:00,48.4,43.2,30.06,NNE,29,6.0,11.0,82,0.00,,,0.00,Wunderground v.1.15,2013-02-15 16:15:00,
2013-02-15 11:20:00,48.5,43.3,30.06,NE,36,9.0,11.0,82,0.00,,,0.00,Wunderground v.1.15,2013-02-15 16:20:00,
2013-02-15 11:25:00,48.3,43.1,30.05,NE,36,5.0,10.0,82,0.00,,,0.00,Wunderground v.1.15,2013-02-15 16:25:00,
2013-02-15 11:30:00,48.4,43.2,30.05,NE,37,5.0,10.0,82,0.00,,,0.00,Wunderground v.1.15,2013-02-15 16:30:00,
2013-02-15 11:35:00,48.4,42.8,30.05,NE,34,7.0,9.0,81,0.00,,,0.00,Wunderground v.1.15,2013-02-15 16:35:00,
2013-02-15 11:40:00,48.6,43.0,30.05,NNE,27,5.0,9.0,81,0.00,,,0.00,Wunderground v.1.15,2013-02-15 16:40:00,
2013-02-15 11:45:00,48.6,42.7,30.05,NNE,28,5.0,9.0,80,0.00,,,0.00,Wunderground v.1.15,2013-02-15 16:45:00,
2013-02-15 11:50:00,48.6,42.7,30.04,NNE,25,9.0,11.0,80,0.00,,,0.00,Wunderground v.1.15,2013-02-15 16:50:00,
2013-02-15 11:55:00,48.8,43.2,30.04,NNE,26,6.0,7.0,81,0.00,,,0.00,Wunderground v.1.15,2013-02-15 16:55:00,
2013-02-15 12:00:00,48.7,42.8,30.04,NNE,26,9.0,11.0,80,0.00,,,0.00,Wunderground v.1.15,2013-02-15 17:00:00,
2013-02-15 12:05:00,48.7,42.5,30.04,NNE,32,3.0,10.0,79,0.00,,,0.00,Wunderground v.1.15,2013-02-15 17:05:00,
2013-02-15 12:10:00,49.0,42.4,30.04,NNE,30,5.0,10.0,78,0.00,,,0.00,Wunderground v.1.15,2013-02-15 17:10:00,
2013-02-15 12:15:00,49.0,42.1,30.03,NNE,28,4.0,11.0,77,0.00,,,0.00,Wunderground v.1.15,2013-02-15 17:15:00,
2013-02-15 12:20:00,49.1,42.2,30.03,NE,42,7.0,11.0,77,0.00,,,0.00,Wunderground v.1.15,2013-02-15 17:20:00,
2013-02-15 12:25:00,49.3,42.4,30.03,NE,46,5.0,9.0,77,0.00,,,0.00,Wunderground v.1.15,2013-02-15 17:25:00,
2013-02-15 12:30:00,49.4,42.5,30.03,NE,38,9.0,9.0,77,0.00,,,0.00,Wunderground v.1.15,2013-02-15 17:30:00,
2013-02-15 12:35:00,49.4,42.1,30.02,NE,36,7.0,11.0,76,0.00,,,0.00,Wunderground v.1.15,2013-02-15 17:35:00,
2013-02-15 12:40:00,49.4,41.8,30.02,NE,46,5.0,7.0,75,0.00,,,0.00,Wunderground v.1.15,2013-02-15 17:40:00,
2013-02-15 12:45:00,49.5,41.9,30.02,NE,34,8.0,11.0,75,0.00,,,0.00,Wunderground v.1.15,2013-02-15 17:45:00,
2013-02-15 12:50:00,49.5,42.2,30.01,NE,34,6.0,7.0,76,0.00,,,0.00,Wunderground v.1.15,2013-02-15 17:50:00,
2013-02-15 12:55:00,49.5,42.2,30.02,NE,35,5.0,9.0,76,0.00,,,0.00,Wunderground v.1.15,2013-02-15 17:55:00,
2013-02-15 13:00:00,49.6,42.3,30.01,NE,40,5.0,6.0,76,0.00,,,0.00,Wunderground v.1.15,2013-02-15 18:00:00,
2013-02-15 13:05:00,49.5,41.6,30.02,NE,41,7.0,10.0,74,0.00,,,0.00,Wunderground v.1.15,2013-02-15 18:05:00,
2013-02-15 13:10:00,49.8,41.8,30.01,NE,42,9.0,10.0,74,0.00,,,0.00,Wunderground v.1.15,2013-02-15 18:10:00,
2013-02-15 13:15:00,49.8,41.8,30.01,NE,41,5.0,10.0,74,0.00,,,0.00,Wunderground v.1.15,2013-02-15 18:15:00,
2013-02-15 13:20:00,49.9,41.9,30.01,NE,42,6.0,6.0,74,0.00,,,0.00,Wunderground v.1.15,2013-02-15 18:20:00,
2013-02-15 13:25:00,50.0,41.7,30.01,NE,48,4.0,9.0,73,0.00,,,0.00,Wunderground v.1.15,2013-02-15 18:25:00,
2013-02-15 13:30:00,50.2,41.9,30.01,NE,49,7.0,7.0,73,0.00,,,0.00,Wunderground v.1.15,2013-02-15 18:30:00,
2013-02-15 13:35:00,50.1,41.4,30.01,NE,49,6.0,9.0,72,0.00,,,0.00,Wunderground v.1.15,2013-02-15 18:35:00,
2013-02-15 13:40:00,50.3,42.3,30.01,NE,55,4.0,7.0,74,0.00,,,0.00,Wunderground v.1.15,2013-02-15 18:40:00,
2013-02-15 13:45:00,50.1,41.8,30.00,NE,53,9.0,10.0,73,0.00,,,0.00,Wunderground v.1.15,2013-02-15 18:45:00,
2013-02-15 13:50:00,50.0,41.7,30.00,NE,53,4.0,7.0,73,0.00,,,0.00,Wunderground v.1.15,2013-02-15 18:50:00,
2013-02-15 13:55:00,50.3,42.0,30.00,NE,51,6.0,10.0,73,0.00,,,0.00,Wunderground v.1.15,2013-02-15 18:55:00,
2013-02-15 14:00:00,50.3,41.6,30.00,NE,49,9.0,9.0,72,0.00,,,0.00,Wunderground v.1.15,2013-02-15 19:00:00,
2013-02-15 14:05:00,50.5,41.8,30.00,NE,49,5.0,9.0,72,0.00,,,0.00,Wunderground v.1.15,2013-02-15 19:05:00,
2013-02-15 14:10:00,50.6,40.8,30.00,NE,47,4.0,5.0,69,0.00,,,0.00,Wunderground v.1.15,2013-02-15 19:10:00,
2013-02-15 14:15:00,50.6,40.8,30.00,NE,43,2.0,10.0,69,0.00,,,0.00,Wunderground v.1.15,2013-02-15 19:15:00,
2013-02-15 14:20:00,50.8,41.0,29.99,NE,43,5.0,8.0,69,0.00,,,0.00,Wunderground v.1.15,2013-02-15 19:20:00,
2013-02-15 14:25:00,50.9,39.9,29.99,NE,45,5.0,9.0,66,0.00,,,0.00,Wunderground v.1.15,2013-02-15 19:25:00,
2013-02-15 14:30:00,51.0,40.0,29.99,NE,46,5.0,6.0,66,0.00,,,0.00,Wunderground v.1.15,2013-02-15 19:30:00,
2013-02-15 14:35:00,51.2,40.6,29.99,NE,46,4.0,8.0,67,0.00,,,0.00,Wunderground v.1.15,2013-02-15 19:35:00,
2013-02-15 14:40:00,51.2,40.2,29.99,NE,45,6.0,6.0,66,0.00,,,0.00,Wunderground v.1.15,2013-02-15 19:40:00,
2013-02-15 14:45:00,51.2,40.2,29.98,NE,44,6.0,8.0,66,0.00,,,0.00,Wunderground v.1.15,2013-02-15 19:45:00,
2013-02-15 14:50:00,51.4,40.8,29.98,NE,44,6.0,6.0,67,0.00,,,0.00,Wunderground v.1.15,2013-02-15 19:50:00,
2013-02-15 14:55:00,51.5,40.1,29.98,NE,45,3.0,7.0,65,0.00,,,0.00,Wunderground v.1.15,2013-02-15 19:55:00,
2013-02-15 15:00:00,51.8,40.0,29.97,NE,45,2.0,4.0,64,0.00,,,0.00,Wunderground v.1.15,2013-02-15 20:00:00,
2013-02-15 15:06:00,51.9,39.3,29.97,NE,46,4.0,6.0,62,0.00,,,0.00,Wunderground v.1.15,2013-02-15 20:06:00,
2013-02-15 15:11:00,51.9,38.9,29.97,NE,46,4.0,5.0,61,0.00,,,0.00,Wunderground v.1.15,2013-02-15 20:11:00,
2013-02-15 15:16:00,52.1,39.1,29.97,NE,46,4.0,5.0,61,0.00,,,0.00,Wunderground v.1.15,2013-02-15 20:16:00,
2013-02-15 15:21:00,52.2,37.9,29.97,NE,46,1.0,3.0,58,0.00,,,0.00,Wunderground v.1.15,2013-02-15 20:21:00,
2013-02-15 15:26:00,52.3,38.0,29.97,NE,46,1.0,5.0,58,0.00,,,0.00,Wunderground v.1.15,2013-02-15 20:26:00,
2013-02-15 15:31:00,52.4,37.6,29.96,NE,46,3.0,4.0,57,0.00,,,0.00,Wunderground v.1.15,2013-02-15 20:31:00,
2013-02-15 15:36:00,52.6,37.8,29.96,NE,46,2.0,6.0,57,0.00,,,0.00,Wunderground v.1.15,2013-02-15 20:36:00,
2013-02-15 15:41:00,52.8,37.5,29.96,NE,46,1.0,3.0,56,0.00,,,0.00,Wunderground v.1.15,2013-02-15 20:41:00,
2013-02-15 15:46:00,53.0,35.8,29.96,NE,46,0.0,4.0,52,0.00,,,0.00,Wunderground v.1.15,2013-02-15 20:46:00,
2013-02-15 15:51:00,53.1,35.4,29.96,NE,46,2.0,3.0,51,0.00,,,0.00,Wunderground v.1.15,2013-02-15 20:51:00,
2013-02-15 15:56:00,53.2,35.5,29.96,NE,46,2.0,4.0,51,0.00,,,0.00,Wunderground v.1.15,2013-02-15 20:56:00,
2013-02-15 16:01:00,53.2,37.9,29.96,NE,46,1.0,3.0,56,0.00,,,0.00,Wunderground v.1.15,2013-02-15 21:01:00,
2013-02-15 16:06:00,53.3,37.1,29.96,NE,46,0.0,3.0,54,0.00,,,0.00,Wunderground v.1.15,2013-02-15 21:06:00,
2013-02-15 16:11:00,53.5,37.3,29.96,NE,46,1.0,3.0,54,0.00,,,0.00,Wunderground v.1.15,2013-02-15 21:11:00,
2013-02-15 16:16:00,53.4,35.7,29.95,NE,46,2.0,3.0,51,0.00,,,0.00,Wunderground v.1.15,2013-02-15 21:16:00,
2013-02-15 16:21:00,53.4,37.2,29.95,NE,46,1.0,2.0,54,0.00,,,0.00,Wunderground v.1.15,2013-02-15 21:21:00,
2013-02-15 16:26:00,53.4,37.6,29.96,NE,46,0.0,2.0,55,0.00,,,0.00,Wunderground v.1.15,2013-02-15 21:26:00,
2013-02-15 16:31:00,53.5,39.1,29.95,NE,46,2.0,3.0,58,0.00,,,0.00,Wunderground v.1.15,2013-02-15 21:31:00,
2013-02-15 16:36:00,53.3,39.8,29.96,NE,46,2.0,3.0,60,0.00,,,0.00,Wunderground v.1.15,2013-02-15 21:36:00,
2013-02-15 16:41:00,53.2,38.4,29.96,NE,46,0.0,2.0,57,0.00,,,0.00,Wunderground v.1.15,2013-02-15 21:41:00,
2013-02-15 16:46:00,53.2,40.1,29.96,NE,46,1.0,2.0,61,0.00,,,0.00,Wunderground v.1.15,2013-02-15 21:46:00,
2013-02-15 16:51:00,53.0,38.2,29.96,NE,46,2.0,4.0,57,0.00,,,0.00,Wunderground v.1.15,2013-02-15 21:51:00,
2013-02-15 16:56:00,52.9,40.6,29.96,NE,46,2.0,4.0,63,0.00,,,0.00,Wunderground v.1.15,2013-02-15 21:56:00,
2013-02-15 17:01:00,52.6,40.8,29.96,NE,46,3.0,4.0,64,0.00,,,0.00,Wunderground v.1.15,2013-02-15 22:01:00,
2013-02-15 17:06:00,52.6,42.7,29.95,NE,46,4.0,6.0,69,0.00,,,0.00,Wunderground v.1.15,2013-02-15 22:06:00,
2013-02-15 17:11:00,52.3,43.5,29.96,NE,46,4.0,4.0,72,0.00,,,0.00,Wunderground v.1.15,2013-02-15 22:11:00,
2013-02-15 17:17:00,52.2,44.2,29.95,NE,46,3.0,4.0,74,0.00,,,0.00,Wunderground v.1.15,2013-02-15 22:17:00,
2013-02-15 17:22:00,51.8,43.8,29.95,NE,46,2.0,4.0,74,0.00,,,0.00,Wunderground v.1.15,2013-02-15 22:22:00,
2013-02-15 17:27:00,51.6,43.6,29.95,NE,46,2.0,4.0,74,0.00,,,0.00,Wunderground v.1.15,2013-02-15 22:27:00,
2013-02-15 17:32:00,51.5,43.8,29.95,NE,46,0.0,3.0,75,0.00,,,0.00,Wunderground v.1.15,2013-02-15 22:32:00,
2013-02-15 17:37:00,51.4,43.7,29.95,NE,46,0.0,3.0,75,0.00,,,0.00,Wunderground v.1.15,2013-02-15 22:37:00,
2013-02-15 17:42:00,51.1,43.4,29.95,NE,46,0.0,0.0,75,0.00,,,0.00,Wunderground v.1.15,2013-02-15 22:42:00,
2013-02-15 17:47:00,50.8,43.2,29.95,NE,46,0.0,0.0,75,0.00,,,0.00,Wunderground v.1.15,2013-02-15 22:47:00,
2013-02-15 17:52:00,50.4,43.1,29.95,NE,46,0.0,0.0,76,0.00,,,0.00,Wunderground v.1.15,2013-02-15 22:52:00,
2013-02-15 17:57:00,50.3,43.4,29.95,NE,46,0.0,0.0,77,0.00,,,0.00,Wunderground v.1.15,2013-02-15 22:57:00,
2013-02-15 18:02:00,50.1,43.2,29.95,NE,46,0.0,0.0,77,0.00,,,0.00,Wunderground v.1.15,2013-02-15 23:02:00,
2013-02-15 18:07:00,49.7,42.8,29.95,NE,46,0.0,0.0,77,0.00,,,0.00,Wunderground v.1.15,2013-02-15 23:07:00,
2013-02-15 18:12:00,49.5,42.9,29.95,NE,46,0.0,0.0,78,0.00,,,0.00,Wunderground v.1.15,2013-02-15 23:12:00,
2013-02-15 18:17:00,49.2,42.6,29.95,NE,46,0.0,0.0,78,0.00,,,0.00,Wunderground v.1.15,2013-02-15 23:17:00,
2013-02-15 18:22:00,49.0,42.4,29.95,NE,46,0.0,0.0,78,0.00,,,0.00,Wunderground v.1.15,2013-02-15 23:22:00,
2013-02-15 18:27:00,48.8,42.6,29.95,NE,46,0.0,0.0,79,0.00,,,0.00,Wunderground v.1.15,2013-02-15 23:27:00,
2013-02-15 18:32:00,48.7,42.1,29.95,NE,46,0.0,0.0,78,0.00,,,0.00,Wunderground v.1.15,2013-02-15 23:32:00,
2013-02-15 18:37:00,48.6,42.4,29.95,NE,46,0.0,0.0,79,0.00,,,0.00,Wunderground v.1.15,2013-02-15 23:37:00,
2013-02-15 18:42:00,48.5,42.6,29.94,NE,46,0.0,0.0,80,0.00,,,0.00,Wunderground v.1.15,2013-02-15 23:42:00,
2013-02-15 18:47:00,48.2,42.3,29.94,NE,46,0.0,0.0,80,0.00,,,0.00,Wunderground v.1.15,2013-02-15 23:47:00,
2013-02-15 18:52:00,47.9,42.0,29.95,NE,46,0.0,0.0,80,0.00,,,0.00,Wunderground v.1.15,2013-02-15 23:52:00,
2013-02-15 18:57:00,47.7,42.2,29.95,NE,46,0.0,0.0,81,0.00,,,0.00,Wunderground v.1.15,2013-02-15 23:57:00,
2013-02-15 19:02:00,47.5,42.0,29.94,NE,46,0.0,0.0,81,0.00,,,0.00,Wunderground v.1.15,2013-02-16 00:02:00,
2013-02-15 19:07:00,47.2,42.0,29.95,NE,46,0.0,0.0,82,0.00,,,0.00,Wunderground v.1.15,2013-02-16 00:07:00,
2013-02-15 19:12:00,46.9,41.7,29.94,NE,46,0.0,0.0,82,0.00,,,0.00,Wunderground v.1.15,2013-02-16 00:12:00,
2013-02-15 19:17:00,46.7,41.8,29.95,NE,46,0.0,0.0,83,0.00,,,0.00,Wunderground v.1.15,2013-02-16 00:17:00,
2013-02-15 19:22:00,46.4,41.5,29.95,NE,46,0.0,0.0,83,0.00,,,0.00,Wunderground v.1.15,2013-02-16 00:22:00,
2013-02-15 19:27:00,46.4,41.8,29.95,NE,46,0.0,0.0,84,0.00,,,0.00,Wunderground v.1.15,2013-02-16 00:27:00,
2013-02-15 19:32:00,46.2,41.9,29.95,NE,46,0.0,0.0,85,0.00,,,0.00,Wunderground v.1.15,2013-02-16 00:32:00,
2013-02-15 19:37:00,46.2,41.9,29.94,NE,46,0.0,0.0,85,0.00,,,0.00,Wunderground v.1.15,2013-02-16 00:37:00,
2013-02-15 19:42:00,46.1,42.1,29.95,NE,46,0.0,0.0,86,0.00,,,0.00,Wunderground v.1.15,2013-02-16 00:42:00,
2013-02-15 19:47:00,45.9,41.9,29.95,NE,46,0.0,0.0,86,0.00,,,0.00,Wunderground v.1.15,2013-02-16 00:47:00,
2013-02-15 19:52:00,45.7,41.8,29.95,NE,46,0.0,0.0,86,0.00,,,0.00,Wunderground v.1.15,2013-02-16 00:52:00,
2013-02-15 19:57:00,45.6,42.0,29.95,NE,46,0.0,0.0,87,0.00,,,0.00,Wunderground v.1.15,2013-02-16 00:57:00,
2013-02-15 20:02:00,45.5,41.9,29.94,NE,46,0.0,0.0,87,0.00,,,0.00,Wunderground v.1.15,2013-02-16 01:02:00,
2013-02-15 20:07:00,45.4,41.8,29.94,NE,46,0.0,0.0,87,0.00,,,0.00,Wunderground v.1.15,2013-02-16 01:07:00,
2013-02-15 20:12:00,45.4,42.1,29.95,NE,46,0.0,0.0,88,0.00,,,0.00,Wunderground v.1.15,2013-02-16 01:12:00,
2013-02-15 20:17:00,45.6,42.5,29.95,NE,46,0.0,0.0,89,0.00,,,0.00,Wunderground v.1.15,2013-02-16 01:17:00,
2013-02-15 20:22:00,45.7,42.6,29.95,NE,46,0.0,0.0,89,0.00,,,0.00,Wunderground v.1.15,2013-02-16 01:22:00,
2013-02-15 20:27:00,45.6,42.5,29.95,NE,46,0.0,0.0,89,0.00,,,0.00,Wunderground v.1.15,2013-02-16 01:27:00,
2013-02-15 20:32:00,45.5,42.2,29.95,NE,46,0.0,0.0,88,0.00,,,0.00,Wunderground v.1.15,2013-02-16 01:32:00,
2013-02-15 20:37:00,45.2,41.9,29.95,NE,46,0.0,0.0,88,0.00,,,0.00,Wunderground v.1.15,2013-02-16 01:37:00,
2013-02-15 20:42:00,45.0,42.0,29.95,NE,46,0.0,0.0,89,0.00,,,0.00,Wunderground v.1.15,2013-02-16 01:42:00,
2013-02-15 20:47:00,44.8,41.8,29.95,NE,46,0.0,0.0,89,0.00,,,0.00,Wunderground v.1.15,2013-02-16 01:47:00,
2013-02-15 20:52:00,44.6,41.6,29.95,NE,46,0.0,0.0,89,0.00,,,0.00,Wunderground v.1.15,2013-02-16 01:52:00,
2013-02-15 20:57:00,44.5,41.5,29.95,NE,46,0.0,0.0,89,0.00,,,0.00,Wunderground v.1.15,2013-02-16 01:57:00,
2013-02-15 21:02:00,44.4,41.4,29.95,NE,46,0.0,0.0,89,0.00,,,0.00,Wunderground v.1.15,2013-02-16 02:02:00,
2013-02-15 21:08:00,44.4,41.7,29.95,NE,46,0.0,0.0,90,0.00,,,0.00,Wunderground v.1.15,2013-02-16 02:08:00,
2013-02-15 21:13:00,44.3,41.6,29.95,NE,46,0.0,0.0,90,0.00,,,0.00,Wunderground v.1.15,2013-02-16 02:13:00,
2013-02-15 21:18:00,44.4,41.9,29.96,NE,46,0.0,0.0,91,0.00,,,0.00,Wunderground v.1.15,2013-02-16 02:18:00,
2013-02-15 21:23:00,44.6,42.1,29.95,NE,46,0.0,0.0,91,0.00,,,0.00,Wunderground v.1.15,2013-02-16 02:23:00,
2013-02-15 21:28:00,44.6,42.1,29.96,NE,46,0.0,0.0,91,0.00,,,0.00,Wunderground v.1.15,2013-02-16 02:28:00,
2013-02-15 21:33:00,44.7,42.2,29.95,NE,46,0.0,0.0,91,0.00,,,0.00,Wunderground v.1.15,2013-02-16 02:33:00,
2013-02-15 21:38:00,44.8,42.3,29.95,NE,46,0.0,0.0,91,0.00,,,0.00,Wunderground v.1.15,2013-02-16 02:38:00,
2013-02-15 21:43:00,44.8,42.3,29.95,NE,46,0.0,0.0,91,0.00,,,0.00,Wunderground v.1.15,2013-02-16 02:43:00,
2013-02-15 21:48:00,44.6,42.1,29.95,NE,46,0.0,0.0,91,0.00,,,0.00,Wunderground v.1.15,2013-02-16 02:48:00,
2013-02-15 21:53:00,44.5,42.3,29.95,NE,46,0.0,0.0,92,0.00,,,0.00,Wunderground v.1.15,2013-02-16 02:53:00,
2013-02-15 21:58:00,44.4,41.9,29.95,NE,46,0.0,0.0,91,0.00,,,0.00,Wunderground v.1.15,2013-02-16 02:58:00,
2013-02-15 22:03:00,44.2,41.7,29.95,NE,46,0.0,0.0,91,0.00,,,0.00,Wunderground v.1.15,2013-02-16 03:03:00,
2013-02-15 22:08:00,44.2,42.0,29.95,NE,46,0.0,0.0,92,0.00,,,0.00,Wunderground v.1.15,2013-02-16 03:08:00,
2013-02-15 22:13:00,44.3,42.1,29.95,NE,46,0.0,0.0,92,0.00,,,0.00,Wunderground v.1.15,2013-02-16 03:13:00,
2013-02-15 22:18:00,44.4,42.2,29.95,NE,46,0.0,0.0,92,0.00,,,0.00,Wunderground v.1.15,2013-02-16 03:18:00,
2013-02-15 22:23:00,44.7,42.8,29.95,NE,46,0.0,0.0,93,0.00,,,0.00,Wunderground v.1.15,2013-02-16 03:23:00,
2013-02-15 22:28:00,45.6,44.0,29.95,NE,46,0.0,0.0,94,0.00,,,0.00,Wunderground v.1.15,2013-02-16 03:28:00,
2013-02-15 22:34:00,45.9,44.0,29.95,NE,46,0.0,0.0,93,0.00,,,0.00,Wunderground v.1.15,2013-02-16 03:34:00,
2013-02-15 22:39:00,45.8,43.9,29.95,NE,46,0.0,0.0,93,0.00,,,0.00,Wunderground v.1.15,2013-02-16 03:39:00,
2013-02-15 22:43:00,45.7,43.8,29.95,NE,46,0.0,0.0,93,0.00,,,0.00,Wunderground v.1.15,2013-02-16 03:43:00,
2013-02-15 22:48:00,45.7,43.8,29.95,NE,46,0.0,0.0,93,0.00,,,0.00,Wunderground v.1.15,2013-02-16 03:48:00,
2013-02-15 22:54:00,45.7,43.8,29.94,NE,46,0.0,0.0,93,0.00,,,0.00,Wunderground v.1.15,2013-02-16 03:54:00,
2013-02-15 22:59:00,45.8,44.2,29.94,NE,46,0.0,0.0,94,0.00,,,0.00,Wunderground v.1.15,2013-02-16 03:59:00,
2013-02-15 23:04:00,46.7,45.1,29.94,NE,46,2.0,2.0,94,0.00,,,0.00,Wunderground v.1.15,2013-02-16 04:04:00,
2013-02-15 23:09:00,47.0,45.4,29.94,NE,46,0.0,2.0,94,0.00,,,0.00,Wunderground v.1.15,2013-02-16 04:09:00,
2013-02-15 23:14:00,46.8,44.9,29.94,NE,46,0.0,1.0,93,0.00,,,0.00,Wunderground v.1.15,2013-02-16 04:14:00,
2013-02-15 23:19:00,46.9,45.3,29.94,NE,46,2.0,2.0,94,0.00,,,0.00,Wunderground v.1.15,2013-02-16 04:19:00,
2013-02-15 23:24:00,47.0,45.4,29.94,NE,46,0.0,1.0,94,0.00,,,0.00,Wunderground v.1.15,2013-02-16 04:24:00,
2013-02-15 23:29:00,47.0,45.4,29.93,NE,46,0.0,1.0,94,0.00,,,0.00,Wunderground v.1.15,2013-02-16 04:29:00,
2013-02-15 23:34:00,46.6,44.7,29.94,NE,46,0.0,0.0,93,0.00,,,0.00,Wunderground v.1.15,2013-02-16 04:34:00,
2013-02-15 23:39:00,46.3,44.4,29.93,NE,46,0.0,0.0,93,0.00,,,0.00,Wunderground v.1.15,2013-02-16 04:39:00,
2013-02-15 23:44:00,46.2,44.3,29.93,NE,46,0.0,0.0,93,0.00,,,0.00,Wunderground v.1.15,2013-02-16 04:44:00,
2013-02-15 23:49:00,45.7,43.8,29.93,NE,46,0.0,0.0,93,0.00,,,0.00,Wunderground v.1.15,2013-02-16 04:49:00,
2013-02-15 23:54:00,45.4,43.5,29.93,NE,46,0.0,0.0,93,0.00,,,0.00,Wunderground v.1.15,2013-02-16 04:54:00,
2013-02-15 23:59:00,45.2,43.3,29.93,NE,46,0.0,0.0,93,0.00,,,0.00,Wunderground v.1.15,2013-02-16 04:59:00,